Regional Weather Roundup
Issued by NWS

Home | Current Version | Previous Version | Graphics & Text | Print | Product List | Glossary On
Versions: 1 2 3 4 5 6 7 8 9 10 11 12 13 14 15 16 17 18 19 20 21 22 23 24 25 26 27 28 29 30 31 32 33 34 35 36 37 38 39 40 41 42 43 44 45 46 47 48 49 50
000
ASUS43 KDTX 201410
RWRMI
MICHIGAN HOURLY REGIONAL WEATHER ROUNDUP
NATIONAL WEATHER SERVICE DETROIT/PONTIAC MI
900 AM EST SAT DEC 20 2014

NOTE: "FAIR" INDICATES FEW OR NO CLOUDS BELOW 12,000 FEET WITH NO
SIGNIFICANT WEATHER AND/OR OBSTRUCTION TO VISIBILITY.

MIZ047>049-052>055-059>063-066>070-074>076-081>083-201500-
SOUTHEAST LOWER MICHIGAN

CITY           SKY/WX    TMP DP  RH WIND       PRES   REMARKS
ADRIAN         CLOUDY    28  23  81 SE3       30.30R
ALMA           PTCLDY    15  14  96 CALM      30.30F
ANN ARBOR      CLOUDY    27  21  78 E3        30.29R
BAD AXE        PTCLDY    16  15  97 CALM      30.31S
CARO           CLEAR     14  11  90 CALM      30.31S
DETROIT CITY   CLOUDY    28  20  71 CALM      30.31S
DETROIT        CLOUDY    27  21  78 N3        30.31R
FLINT          PTCLDY    21  16  81 NE3       30.29F
GROSSE ILE     CLOUDY    28  23  80 CALM      30.29S
HILLSDALE      CLOUDY    28  21  76 CALM      30.27R
HOWELL         CLOUDY    23  22  96 CALM      30.28R

CITY           SKY/WX    TMP DP  RH WIND       PRES   REMARKS
JACKSON        CLOUDY    27  20  75 W3        30.29R
LAMBERTVILLE   CLOUDY    32  21  64 CALM      30.30S
LANSING        CLOUDY    21  18  88 CALM      30.30R FOG
LAPEER         CLOUDY    18  17  93 CALM      30.30S
MASON          CLOUDY    25  23  91 CALM      30.29R FOG
MONROE         CLOUDY    28  23  80 CALM      30.29R
MT. CLEMENS    MOCLDY    24  24  99 N5        30.27F WCI  18
PONTIAC        CLOUDY    23  20  88 CALM      30.27S
PORT HOPE        N/A     25  18  74 SW6       30.30R WCI  18
PORT HURON     CLOUDY    21  21 100 CALM      30.31S
TRI CITIES     CLEAR     20  17  88 CALM      30.32S
TROY           CLOUDY    28  21  78 N3        30.31S
SAGINAW HB     CLEAR     19  19 100 CALM      30.31S
$$
MIZ043>046-050>051-056>058-064>065-071>073-077>080-201500-
SOUTHWEST LOWER MICHIGAN

CITY           SKY/WX    TMP DP  RH WIND       PRES   REMARKS
BATTLE CREEK   PTCLDY    24  20  84 CALM      30.28S FOG
BENTON HARBOR  CLOUDY    29  25  85 E3        30.27F
BIG RAPIDS     PTCLDY    17  15  95 CALM      30.28R
COLDWATER      PTCLDY    24  23  96 MISG      30.28S FOG
FREMONT        PTSUNNY   20  19  95 E5        30.28S WCI  14
HOLLAND        CLOUDY    25  20  81 SE3       30.28F
GRAND RAPIDS   MOCLDY    20  17  88 E3        30.29R
IONIA          FAIR      19  18  96 CALM      30.28S FOG
KALAMAZOO      PTCLDY    21  17  84 CALM      30.28F FOG
LUDINGTON      CLOUDY    24  21  88 SE6       30.29S WCI  17
MARSHALL       CLOUDY    24  23  95 CALM      30.28S FOG
MOUNT PLEASANT CLEAR     15  14  93 CALM      30.29S
MUSKEGON       CLOUDY    23  19  85 E3        30.29S
SOUTH HAVEN    CLOUDY    26  22  87 E3        30.28S
$$
MIZ016>042-201500-
NORTHERN LOWER MICHIGAN

CITY           SKY/WX    TMP DP  RH WIND       PRES   REMARKS
ALPENA         PTCLDY    12   9  87 CALM      30.32S
BEAVER ISLAND  CLOUDY    24  24  97 CALM      30.28S
BELLAIRE       CLOUDY    25  20  81 CALM      30.30S
CADILLAC       PTCLDY    15  12  88 CALM      30.25R
CHARLEVOIX     CLOUDY    25  21  87 SE5       30.32S WCI  19
FRANKFORT      CLOUDY    26  22  85 SE5       30.28S WCI  21
GAYLORD        CLOUDY    19  17  92 CALM      30.25S
GRAYLING       CLOUDY    17  15  92 CALM      30.28S
HARBOR SPRINGS CLOUDY    17  15  90 E5        30.29S WCI  10
HOUGHTON LAKE  CLOUDY    13  10  88 CALM      30.28S
MANISTEE       CLOUDY    19  16  86 CALM      30.29S
OSCODA         PTCLDY     9   7  92 CALM      30.31S
PELLSTON       CLOUDY    12   9  87 CALM      30.31R
ROGERS CITY    PTCLDY    15  15  98 SW3       30.32S
TRAVERSE CITY  CLOUDY    26  19  74 SE5       30.28S WCI  20
$$
MIZ007>008-015-201500-
EASTERN UPPER MICHIGAN

CITY           SKY/WX    TMP DP  RH WIND       PRES   REMARKS
KINROSS        CLOUDY    14  12  92 NE5       30.30R WCI   6
MACKINAC ISLAN CLOUDY    24  23  97 CALM      30.29S
NEWBERRY       CLOUDY    23  20  88 CALM      30.27S
S. S. MARIE    FAIR      12   9  87 E5        30.28F WCI   4
MUNISING         N/A     12   7  80 S3        30.26S
$$
MIZ004>006-011>014-085-201500-
CENTRAL UPPER MICHIGAN

CITY           SKY/WX    TMP DP  RH WIND       PRES   REMARKS
MANISTIQUE     PTCLDY    14  13  95 CALM      30.27S
ESCANABA       MOCLDY    10   5  79 CALM      30.26S
MENOMINEE      MOCLDY    16  12  86 CALM      30.26F
SAWYER-GWINN   CLEAR     10   7  85 CALM      30.21S
$$
MIZ001>003-009>011-084-201500-
WESTERN UPPER MICHIGAN

CITY           SKY/WX    TMP DP  RH WIND       PRES   REMARKS
IRON MOUNTAIN  CLOUDY    18  14  84 CALM      30.21F
HOUGHTON       CLOUDY    17  14  88 CALM      30.18S
COPPER HARBOR    N/A     22  18  85 SW5       30.21F WCI  16
IRONWOOD       CLOUDY    25  21  86 S5        30.15S WCI  19
$$

ABBREVIATIONS USED IN REMARKS
   TC - TEMPERATURE IN CELSIUS
  WCI - WIND CHILL INDEX
   HX - HEAT INDEX
  VSB - VISIBILITY




USA.gov is the U.S. government's official web portal to all federal, state and local government web resources and services.